Showing default

YAM-17, 69884

Orbit data source: Space-Track

YAM-17, 69884 is an American payload satellite in SSO that was launched on Tue, 07 Jul 2026 UTC via an FALCON 9 launch vehicle from the Air Force Western Test Range (AFWTR). Payload-class satellites include a variety of spacecraft equipped with specific instruments for various scientific and technological missions. These include communications satellites like Starlink; space stations such as the ISS; scientific satellites like the Hubble; Earth observation satellites from companies like Planet Labs, Umbra, and HawkEye 360; GPS; miniature CubeSats for education and research; and military/defense satellites.

Loading next visibility...
Identifier
69884, 2026-156R
Orbit
SSO
Country
Flag of USUS
Related business
Manufacturer
Airbus/Toulouse
Mission
Operational spacecraft
Bus & Motor
ARROW, Unknown motor
Mass
~150 kg wet, ~140 kg dry
Launch date (UTC)
2026-07-07 (2 months ago)
Launch vehicle
FALCON 9
Launch site
Air Force Western Test Range (AFWTR)
Object type
Payload
Rocket body
Debris
Shape & HBR
TRAPEZOID+2 PAN, 2.3 m
Radar Cross Section
Large (>1 m²)

Expand to show TLE details & history
Last TLE update: 10 hours ago

TLE from 10 hours ago
0 YAM-17
1 69884U 26156R   26237.19783963  .00001358  00000-0  14423-3 0  9995
2 69884  97.5619 136.2486 0002746 100.1442 260.0086 14.90568826  7283
Epoch: 2026-08-25T04:44Z
TLE epoch observation values (Epoch: 2026-08-25T04:44:53.344Z)
Latitude
-0.00005°
Longitude
91.5577°
Altitude
599.539 km
Speed
7.56 km/s
True Right ascension
09h 04m 59s
True Declination
0° 00' 00"
Sunlit
Object was in daylight at epoch
Visualization orbit readout
Latitude
Unknown
Longitude
Unknown
Altitude
Unknown
Speed
Unknown
Apparent Right ascension
Unknown
Apparent Declination
Unknown
Sunlit
N/A
Visualization observer readout
Local Sidereal Time
05:46:51
Azimuth
Unknown
Elevation
Unknown
Doppler factor
Unknown
Orbital elements
Apogee altitude
595.087 km
Perigee altitude
591.258 km
Semi-major axis
6,971.31 km
Eccentricity
0.00027
Inclination
97.5619°
RAAN
136.2486°
Arg. of periapsis
100.1442°
True anomaly
259.97761°
Mean anomaly
260.0086°
Eccentric anomaly
259.99311°
Mean motion
3.72882 °/min
Orbital period
96.55 mins
BSTAR
0.00014423
Loading maneuver chart data...
Computing Atmospheric mass density...
Loading historical data...
Loading historical data...
Loading historical data...
Loading historical data...
Loading historical data...
Loading historical data...
Loading historical data...

Documentation

Showing up to 5 results
|